User: anonymous   Login
Location: Étouvelles
(49.5207°N, 3.5808°E)
Time: 00:42:11
(UTC+00:00)
Language:

CZ-4C R/B - Orbit

View from above orbital plane
View from above orbital plane
View from above satellite
View from above satellite

Ground track
Ground track

The orbit data is extracted from the following two-line orbital elements,

1 39211U 13037D   23150.44673277  .00004839  00000-0  25044-3 0  9993
2 39211  98.0728 343.6446 0110773 170.3538 189.9854 15.11518263541353
Epoch (UTC): 30 May 2023 10:43:17
Eccentricity: 0.0110773
inclination: 98.0728°
perigee height: 455 km
apogee height: 608 km
right ascension of ascending node: 343.6446°
argument of perigee: 170.3538°
revolutions per day: 15.11518263
mean anomaly at epoch: 189.9854°
orbit number at epoch: 54135

The dashed part of the orbit path shows where the satellite is in the earth's shadow,  

DLR